Ely, MN

3:58 PM CDT on August 19, 2017 (GMT -0500)
Ely Municipal

Weather History for KELO - October, 2013

Change the Weather History Date:

Thursday, October 24, 2013

  Actual Average Record
Temperature  
Mean Temperature 34 °F -  
Max Temperature 39 °F 45 °F 69 °F (2014)
Min Temperature 28 °F 31 °F 17 °F (2006)
Degree Days  
Heating Degree Days 32    
Moisture  
Dew Point 28 °F    
Average Humidity 83    
Maximum Humidity 100    
Minimum Humidity 56    
Precipitation  
Precipitation 0.00 in - - ()
Sea Level Pressure  
Sea Level Pressure 30.09 in    
Wind  
Wind Speed 6 mph (WNW)    
Max Wind Speed 13 mph    
Max Gust Speed 16 mph    
Visibility 9 miles    
Events Snow    
Averages and records for this station are not official NWS values.
T = Trace of Precipitation, MM = Missing Value Source: NWS Daily Summary

Daily Weather History Graph

Daily Weather History Graph

Search for Another Location

Airport or City:

Trip Planner

Search our weather history database for the weather conditions in past years. The results will help you decide how hot, cold, wet, or windy it might be!

Date:

Astronomy

Oct. 24, 2013 Rise Set
Actual Time 7:40 AM CDT 6:02 PM CDT
Civil Twilight 7:08 AM CDT 6:33 PM CDT
Nautical Twilight 6:32 AM CDT 7:09 PM CDT
Astronomical Twilight 5:56 AM CDT 7:45 PM CDT
Moon 10:17 PM CDT (10/24) 12:51 PM CDT (10/24)
Length of Visible Light 11h 25m
Length of Day
10h 21m
Waning Gibbous, 71% of the Moon is Illuminated
Oct 24
Waning Gibbous
Oct 26
Last Quarter
Nov 3
New
Nov 9
First Quarter
Nov 17
Full

Hourly Weather History & Observations

Time (CDT) Temp. Windchill Dew Point Humidity Pressure Visibility Wind Dir Wind Speed Gust Speed Precip Events Conditions
12:13 AM 30.2 °F 23.4 °F 26.6 °F 86% 29.98 in 10.0 mi NW 6.9 mph - N/A   Overcast
12:32 AM 30.2 °F 23.4 °F 26.6 °F 86% 29.98 in - WNW 6.9 mph - N/A   Overcast
12:53 AM 30.2 °F 23.4 °F 26.6 °F 86% 29.98 in 10.0 mi NW 6.9 mph - N/A   Overcast
1:12 AM 30.2 °F 23.4 °F 26.6 °F 86% 29.98 in 10.0 mi NW 6.9 mph - N/A   Overcast
1:33 AM 30.2 °F 25.4 °F 26.6 °F 86% 29.99 in - NW 4.6 mph - N/A   Overcast
1:53 AM 30.2 °F 25.4 °F 26.6 °F 86% 30.00 in 10.0 mi WNW 4.6 mph - N/A   Unknown
2:13 AM 30.2 °F 23.4 °F 26.6 °F 86% 30.00 in - WNW 6.9 mph - N/A   Unknown
2:33 AM 30.2 °F 25.4 °F 26.6 °F 86% 30.00 in - WNW 4.6 mph - N/A   Unknown
2:53 AM 30.2 °F 23.4 °F 28.4 °F 93% 30.01 in - WNW 6.9 mph - N/A   Unknown
3:13 AM 30.2 °F 23.4 °F 26.6 °F 86% 30.00 in - WNW 6.9 mph - N/A   Overcast
3:33 AM - - - N/A% 30.01 in - WNW 8.1 mph - N/A   Unknown
3:53 AM - - - N/A% 30.01 in - WNW 5.8 mph - N/A   Unknown
4:13 AM 30.2 °F 21.9 °F 26.6 °F 86% 30.02 in - WNW 9.2 mph - N/A   Overcast
4:33 AM 30.2 °F 24.3 °F 26.6 °F 86% 30.02 in - WNW 5.8 mph - N/A   Unknown
4:53 AM 30.2 °F 25.4 °F 26.6 °F 86% 30.02 in - WNW 4.6 mph - N/A   Unknown
5:13 AM 30.2 °F 23.4 °F 26.6 °F 86% 30.03 in - WNW 6.9 mph - N/A   Unknown
5:32 AM 30.2 °F 24.3 °F 26.6 °F 86% 30.03 in - WNW 5.8 mph - N/A   Overcast
5:53 AM 30.2 °F 24.3 °F 26.6 °F 86% 30.04 in - WNW 5.8 mph - N/A   Overcast
6:13 AM 30.2 °F - 26.6 °F 86% 30.04 in - Calm Calm - N/A   Overcast
6:31 AM 30.2 °F - 26.6 °F 86% 30.04 in - Calm Calm - N/A   Overcast
6:53 AM 28.4 °F 24.6 °F 26.6 °F 93% 30.05 in - WNW 3.5 mph - N/A   Overcast
7:13 AM 28.4 °F - 26.6 °F 93% 30.05 in - Calm Calm - N/A   Overcast
7:33 AM 28.4 °F - 26.6 °F 93% 30.05 in - Calm Calm - N/A   Overcast
7:52 AM 28.4 °F - 26.6 °F 93% 30.06 in - Calm Calm - N/A   Overcast
8:13 AM 28.4 °F 24.6 °F 26.6 °F 93% 30.06 in - West 3.5 mph - N/A   Overcast
8:32 AM 30.2 °F 25.4 °F 26.6 °F 86% 30.07 in 10.0 mi WNW 4.6 mph - N/A   Overcast
8:53 AM 30.2 °F 26.7 °F 26.6 °F 86% 30.07 in 10.0 mi West 3.5 mph - N/A   Overcast
9:13 AM 30.2 °F 25.4 °F 28.4 °F 93% 30.08 in 10.0 mi WNW 4.6 mph - N/A   Overcast
9:33 AM 32.0 °F 26.4 °F 28.4 °F 87% 30.08 in 10.0 mi WNW 5.8 mph - N/A   Overcast
9:52 AM 32.0 °F 25.6 °F 26.6 °F 80% 30.09 in 10.0 mi WNW 6.9 mph - N/A   Scattered Clouds
10:13 AM 33.8 °F 29.6 °F 26.6 °F 75% 30.09 in 10.0 mi NW 4.6 mph - N/A   Scattered Clouds
10:33 AM 35.6 °F 29.2 °F 26.6 °F 70% 30.09 in 10.0 mi NW 8.1 mph - N/A   Scattered Clouds
10:52 AM 35.6 °F 29.2 °F 24.8 °F 65% 30.10 in 10.0 mi NW 8.1 mph - N/A   Scattered Clouds
11:13 AM 35.6 °F 28.6 °F 24.8 °F 65% 30.10 in 10.0 mi WNW 9.2 mph - N/A   Mostly Cloudy
11:33 AM 35.6 °F 29.2 °F 26.6 °F 70% 30.11 in 10.0 mi NW 8.1 mph - N/A   Overcast
11:52 AM 35.6 °F 29.2 °F 26.6 °F 70% 30.11 in 10.0 mi WNW 8.1 mph - N/A   Overcast
12:13 PM 37.4 °F 31.4 °F 26.6 °F 65% 30.11 in 10.0 mi NW 8.1 mph - N/A   Overcast
12:33 PM 37.4 °F 32.1 °F 26.6 °F 65% 30.12 in 10.0 mi WNW 6.9 mph - N/A   Mostly Cloudy
12:52 PM 35.6 °F 28.0 °F 26.6 °F 70% 30.11 in 10.0 mi WNW 10.4 mph - N/A   Scattered Clouds
1:13 PM 37.4 °F 30.3 °F 28.4 °F 70% 30.11 in 4.0 mi NW 10.4 mph 16.1 mph N/A   Haze
1:33 PM 37.4 °F 30.8 °F 26.6 °F 65% 30.11 in 10.0 mi NW 9.2 mph - N/A   Scattered Clouds
1:52 PM 37.4 °F 32.1 °F 26.6 °F 65% 30.11 in 10.0 mi NW 6.9 mph 16.1 mph N/A   Mostly Cloudy
2:13 PM 37.4 °F 31.4 °F 24.8 °F 60% 30.11 in 10.0 mi West 8.1 mph - N/A   Overcast
2:33 PM 37.4 °F 31.4 °F 24.8 °F 60% 30.11 in 10.0 mi NW 8.1 mph - N/A   Overcast
2:52 PM 37.4 °F 31.4 °F 24.8 °F 60% 30.11 in 10.0 mi WNW 8.1 mph - N/A   Overcast
3:13 PM 39.2 °F 33.0 °F 24.8 °F 56% 30.11 in 10.0 mi WNW 9.2 mph - N/A   Mostly Cloudy
3:32 PM 37.4 °F 32.8 °F 26.6 °F 65% 30.11 in 10.0 mi WNW 5.8 mph - N/A   Mostly Cloudy
3:53 PM 37.4 °F 32.8 °F 24.8 °F 60% 30.12 in 10.0 mi WNW 5.8 mph - N/A   Scattered Clouds
4:13 PM 37.4 °F 32.8 °F 26.6 °F 65% 30.12 in 10.0 mi West 5.8 mph - N/A   Mostly Cloudy
4:32 PM 37.4 °F 33.8 °F 26.6 °F 65% 30.12 in 10.0 mi West 4.6 mph - N/A   Overcast
4:53 PM 37.4 °F 29.3 °F 28.4 °F 70% 30.13 in 4.0 mi WNW 12.7 mph 16.1 mph N/A   Haze
5:13 PM 33.8 °F 30.8 °F 30.2 °F 87% 30.13 in 1.5 mi WNW 3.5 mph - N/A Snow Light Snow
5:32 PM 32.0 °F 26.4 °F 30.2 °F 93% 30.14 in 1.5 mi NW 5.8 mph - N/A Snow Light Snow
5:53 PM 32.0 °F 28.7 °F 32.0 °F 100% 30.15 in 2.0 mi NW 3.5 mph - N/A Snow Light Snow
6:13 PM 32.0 °F 28.7 °F 30.2 °F 93% 30.15 in 2.0 mi WNW 3.5 mph - N/A Snow Light Snow
6:32 PM 32.0 °F - 30.2 °F 93% 30.15 in 4.0 mi Calm Calm - N/A Snow Light Snow
6:53 PM 32.0 °F - 32.0 °F 100% 30.16 in 10.0 mi Calm Calm - N/A Snow Light Snow
7:13 PM 32.0 °F 27.5 °F 30.2 °F 93% 30.16 in 7.0 mi WNW 4.6 mph - N/A Snow Light Snow
7:32 PM 32.0 °F 26.4 °F 30.2 °F 93% 30.16 in 10.0 mi WNW 5.8 mph - N/A   Overcast
7:53 PM 32.0 °F 27.5 °F 30.2 °F 93% 30.16 in 10.0 mi WNW 4.6 mph - N/A   Mostly Cloudy
8:12 PM 32.0 °F 26.4 °F 30.2 °F 93% 30.16 in 10.0 mi WNW 5.8 mph - N/A   Mostly Cloudy
8:32 PM 32.0 °F 26.4 °F 30.2 °F 93% 30.17 in 10.0 mi WNW 5.8 mph - N/A   Overcast
8:53 PM 32.0 °F 25.6 °F 30.2 °F 93% 30.16 in 10.0 mi WNW 6.9 mph - N/A   Mostly Cloudy
9:13 PM 32.0 °F 24.2 °F 30.2 °F 93% 30.17 in 7.0 mi WNW 9.2 mph - N/A Snow Light Snow
9:32 PM 32.0 °F 26.4 °F 30.2 °F 93% 30.17 in 10.0 mi WNW 5.8 mph - N/A Snow Light Snow
9:53 PM 32.0 °F 26.4 °F 30.2 °F 93% 30.18 in 5.0 mi West 5.8 mph - N/A Snow Light Snow
10:13 PM 30.2 °F 25.4 °F 30.2 °F 100% 30.17 in 10.0 mi WNW 4.6 mph - N/A   Scattered Clouds
10:32 PM 30.2 °F 25.4 °F 30.2 °F 100% 30.18 in 10.0 mi WNW 4.6 mph - N/A   Clear
10:53 PM 30.2 °F 25.4 °F 30.2 °F 100% 30.18 in 10.0 mi WNW 4.6 mph - N/A   Clear
11:13 PM 30.2 °F - 28.4 °F 93% 30.18 in 10.0 mi Calm Calm - N/A   Clear
11:32 PM 28.4 °F - 28.4 °F 100% 30.18 in 10.0 mi Calm Calm - N/A   Clear
11:53 PM 28.4 °F - 28.4 °F 100% 30.18 in 10.0 mi Calm Calm - N/A   Clear